| time (UTC) | temp F | wind direction | speed MPH | gust MPH | rain 1hr in | rain 24hr in | rain mn in | humidity % | barometer mb |
| 20260503173009 | 66 | 232 | 1.0 | 8.0 | 0.00 | 0.00 | 0.00 | 23 | 1020.7 |
| 20260503171506 | 65 | 46 | 2.0 | 11.0 | 0.00 | 0.00 | 0.00 | 27 | 1021.0 |
| 20260503081540 | 40 | 240 | 0.0 | 0.0 | 0.00 | 0.00 | 0.00 | 65 | 1019.1 |
| 20260503071531 | 41 | 234 | 0.0 | 0.0 | 0.00 | 0.00 | 0.00 | 62 | 1018.4 |
| 20260503054520 | 43 | 234 | 0.0 | 2.0 | 0.00 | 0.00 | 0.00 | 60 | 1018.2 |
| 20260503053023 | 42 | 269 | 2.0 | 3.0 | 0.00 | 0.00 | 0.00 | 64 | 1018.1 |
| 20260503051517 | 41 | 272 | 0.0 | 0.0 | 0.00 | 0.00 | 0.00 | 64 | 1018.2 |
| 20260503050010 | 43 | 272 | 0.0 | 1.0 | 0.00 | 0.00 | 0.00 | 60 | 1018.1 |
| 20260503044507 | 44 | 272 | 0.0 | 0.0 | 0.00 | 0.00 | 0.00 | 58 | 1017.8 |
| 20260503043018 | 45 | 272 | 0.0 | 2.0 | 0.00 | 0.00 | 0.00 | 54 | 1017.7 |
| 20260503041503 | 47 | 272 | 0.0 | 0.0 | 0.00 | 0.00 | 0.00 | 52 | 1017.5 |
| 20260503040027 | 48 | 272 | 0.0 | 0.0 | 0.00 | 0.00 | 0.00 | 49 | 1017.3 |
| 20260503034524 | 49 | 272 | 0.0 | 0.0 | 0.00 | 0.00 | 0.00 | 47 | 1017.1 |
| 20260503033025 | 50 | 272 | 0.0 | 0.0 | 0.00 | 0.00 | 0.00 | 49 | 1017.0 |
| 20260503031515 | 52 | 272 | 0.0 | 0.0 | 0.00 | 0.00 | 0.00 | 43 | 1017.0 |
| 20260503030010 | 54 | 272 | 0.0 | 0.0 | 0.00 | 0.00 | 0.00 | 38 | 1016.9 |
| 20260503024520 | 55 | 272 | 1.0 | 4.0 | 0.00 | 0.00 | 0.00 | 34 | 1016.9 |
| 20260503023004 | 56 | 282 | 1.0 | 3.0 | 0.00 | 0.00 | 0.00 | 32 | 1016.8 |
| 20260503021602 | 56 | 311 | 1.0 | 3.0 | 0.00 | 0.00 | 0.00 | 32 | 1016.6 |
| 20260503020158 | 57 | 303 | 1.0 | 4.0 | 0.00 | 0.00 | 0.00 | 31 | 1016.4 |
| 20260503014557 | 57 | 317 | 3.0 | 8.0 | 0.00 | 0.00 | 0.00 | 30 | 1016.2 |
| 20260503013048 | 58 | 306 | 5.0 | 11.0 | 0.00 | 0.00 | 0.00 | 30 | 1015.9 |
| 20260503011546 | 58 | 5 | 3.0 | 5.0 | 0.00 | 0.00 | 0.00 | 32 | 1015.6 |
| 20260503010043 | 58 | 306 | 2.0 | 4.0 | 0.00 | 0.00 | 0.00 | 33 | 1015.2 |
| 20260503004553 | 59 | 343 | 0.0 | 4.0 | 0.00 | 0.00 | 0.00 | 33 | 1015.0 |
| 20260503003056 | 59 | 297 | 1.0 | 3.0 | 0.00 | 0.00 | 0.00 | 33 | 1014.9 |
| 20260503001535 | 59 | 355 | 1.0 | 5.0 | 0.00 | 0.00 | 0.00 | 38 | 1014.6 |
| 20260503000030 | 60 | 78 | 1.0 | 3.0 | 0.00 | 0.00 | 0.00 | 43 | 1014.4 |
| 20260502234526 | 60 | 318 | 1.0 | 9.0 | 0.00 | 0.00 | 0.00 | 45 | 1014.0 |
| 20260502233026 | 60 | 288 | 3.0 | 8.0 | 0.00 | 0.00 | 0.00 | 44 | 1013.7 |
| 20260502231554 | 60 | 355 | 0.0 | 0.0 | 0.00 | 0.00 | 0.00 | 48 | 1013.5 |
| 20260502230052 | 61 | 355 | 0.0 | 0.0 | 0.00 | 0.00 | 0.00 | 44 | 1013.2 |
| 20260502224532 | 62 | 355 | 0.0 | 0.0 | 0.00 | 0.00 | 0.00 | 44 | 1013.1 |
| 20260502223022 | 63 | 355 | 0.0 | 0.0 | 0.00 | 0.00 | 0.00 | 41 | 1013.1 |
| 20260502221517 | 65 | 355 | 0.0 | 3.0 | 0.00 | 0.00 | 0.00 | 36 | 1012.9 |
| 20260502220019 | 64 | 206 | 1.0 | 10.0 | 0.00 | 0.00 | 0.00 | 38 | 1012.8 |
| 20260502214513 | 63 | 165 | 1.0 | 4.0 | 0.00 | 0.00 | 0.00 | 38 | 1012.7 |
| 20260502213014 | 64 | 136 | 1.0 | 3.0 | 0.00 | 0.00 | 0.00 | 38 | 1012.8 |
| 20260502211512 | 64 | 300 | 0.0 | 5.0 | 0.00 | 0.00 | 0.00 | 37 | 1012.7 |
| 20260502210007 | 63 | 279 | 1.0 | 9.0 | 0.00 | 0.00 | 0.00 | 39 | 1012.9 |
| 20260502204506 | 63 | 308 | 2.0 | 9.0 | 0.00 | 0.00 | 0.00 | 37 | 1012.9 |
| 20260502203004 | 63 | 360 | 4.0 | 8.0 | 0.00 | 0.00 | 0.00 | 38 | 1013.0 |
| 20260502201557 | 63 | 67 | 2.0 | 9.0 | 0.00 | 0.00 | 0.00 | 38 | 1013.0 |
| 20260502200157 | 62 | 142 | 0.0 | 12.0 | 0.00 | 0.00 | 0.00 | 38 | 1013.1 |
| 20260502194606 | 62 | 41 | 7.0 | 11.0 | 0.00 | 0.00 | 0.00 | 37 | 1013.4 |
| 20260502193050 | 62 | 331 | 2.0 | 10.0 | 0.00 | 0.00 | 0.00 | 39 | 1013.6 |
| 20260502191517 | 61 | 350 | 1.0 | 6.0 | 0.00 | 0.00 | 0.00 | 39 | 1013.7 |
| 20260502190015 | 61 | 67 | 3.0 | 9.0 | 0.00 | 0.00 | 0.00 | 38 | 1013.8 |
| 20260502184520 | 60 | 111 | 4.0 | 7.0 | 0.00 | 0.00 | 0.00 | 39 | 1014.0 |
| 20260502183012 | 60 | 69 | 2.0 | 10.0 | 0.00 | 0.00 | 0.00 | 37 | 1014.0 |
| 20260502181518 | 59 | 35 | 4.0 | 8.0 | 0.00 | 0.00 | 0.00 | 40 | 1014.2 |